TimeCST,TemperatureF,Dew PointF,Humidity,Sea Level PressureIn,VisibilityMPH,Wind Direction,Wind SpeedMPH,Gust SpeedMPH,PrecipitationIn,Events,Conditions,WindDirDegrees,DateUTC
12:15 AM,-5.8,-9.4,84,30.25,10.0,WSW,4.6,-,N/A,,Scattered Clouds,250,2013-01-01 06:15:00
12:35 AM,-2.2,-5.8,85,30.24,10.0,Calm,Calm,-,N/A,,Mostly Cloudy,0,2013-01-01 06:35:00
12:55 AM,-2.2,-5.8,85,30.24,10.0,Calm,Calm,-,N/A,,Overcast,0,2013-01-01 06:55:00
1:15 AM,-0.4,-4.0,85,30.24,10.0,Calm,Calm,-,N/A,,Overcast,0,2013-01-01 07:15:00
1:35 AM,1.4,-2.2,85,30.24,10.0,Calm,Calm,-,N/A,,Overcast,0,2013-01-01 07:35:00
1:55 AM,1.4,-2.2,85,30.24,8.0,Calm,Calm,-,N/A,,Overcast,0,2013-01-01 07:55:00
2:15 AM,3.2,-0.4,85,30.24,8.0,South,3.5,-,N/A,,Overcast,190,2013-01-01 08:15:00
2:35 AM,3.2,-0.4,85,30.24,9.0,South,3.5,-,N/A,,Overcast,190,2013-01-01 08:35:00
2:55 AM,5.0,-0.4,78,30.24,10.0,Calm,Calm,-,N/A,,Overcast,0,2013-01-01 08:55:00
3:15 AM,5.0,1.4,85,30.24,10.0,South,3.5,-,N/A,,Overcast,190,2013-01-01 09:15:00
3:35 AM,6.8,1.4,79,30.24,10.0,Calm,Calm,-,N/A,,Overcast,0,2013-01-01 09:35:00
3:55 AM,6.8,1.4,79,30.23,10.0,SSE,4.6,-,N/A,,Overcast,160,2013-01-01 09:55:00
4:15 AM,6.8,1.4,79,30.22,10.0,SSE,5.8,-,N/A,,Overcast,160,2013-01-01 10:15:00
4:35 AM,8.6,3.2,79,30.22,10.0,South,6.9,-,N/A,,Overcast,170,2013-01-01 10:35:00
5:15 AM,8.6,3.2,79,30.21,10.0,SE,5.8,-,N/A,,Overcast,140,2013-01-01 11:15:00
5:35 AM,10.4,3.2,73,30.20,10.0,SE,5.8,-,N/A,,Overcast,140,2013-01-01 11:35:00
5:55 AM,10.4,6.8,85,30.20,10.0,South,6.9,-,N/A,,Overcast,170,2013-01-01 11:55:00
6:15 AM,12.2,6.8,79,30.20,10.0,South,6.9,-,N/A,,Overcast,190,2013-01-01 12:15:00
6:35 AM,12.2,6.8,79,30.20,10.0,South,6.9,-,N/A,,Overcast,180,2013-01-01 12:35:00
6:55 AM,12.2,6.8,79,30.19,10.0,South,8.1,-,N/A,,Overcast,190,2013-01-01 12:55:00
7:15 AM,12.2,6.8,79,30.19,10.0,SW,6.9,-,N/A,,Overcast,220,2013-01-01 13:15:00
7:35 AM,14.0,8.6,79,30.19,10.0,SW,5.8,-,N/A,,Overcast,220,2013-01-01 13:35:00
7:55 AM,15.8,8.6,73,30.19,10.0,WSW,9.2,-,N/A,,Overcast,240,2013-01-01 13:55:00
8:15 AM,15.8,10.4,79,30.18,10.0,WSW,8.1,-,N/A,,Overcast,240,2013-01-01 14:15:00
8:35 AM,15.8,10.4,79,30.18,10.0,WSW,5.8,-,N/A,,Overcast,240,2013-01-01 14:35:00
8:55 AM,17.6,12.2,79,30.18,10.0,WNW,4.6,-,N/A,,Overcast,290,2013-01-01 14:55:00
9:15 AM,17.6,12.2,79,30.18,10.0,Calm,Calm,-,N/A,,Overcast,0,2013-01-01 15:15:00
9:35 AM,19.4,12.2,74,30.17,-9999.0,West,9.2,-,N/A,,Overcast,260,2013-01-01 15:35:00
9:55 AM,19.4,15.8,86,30.18,-9999.0,West,5.8,-,N/A,,Overcast,260,2013-01-01 15:55:00
10:15 AM,19.4,12.2,74,30.16,-9999.0,WSW,19.6,-,N/A,,Overcast,240,2013-01-01 16:15:00
10:35 AM,19.4,12.2,74,30.16,-9999.0,WSW,20.7,-,N/A,,Overcast,250,2013-01-01 16:35:00
10:55 AM,19.4,12.2,74,30.16,-9999.0,WSW,17.3,-,N/A,,Overcast,240,2013-01-01 16:55:00
11:15 AM,19.4,14.0,80,30.15,-9999.0,WSW,16.1,-,N/A,,Overcast,240,2013-01-01 17:15:00
11:35 AM,21.2,14.0,74,30.15,-9999.0,WSW,17.3,-,N/A,,Overcast,250,2013-01-01 17:35:00
11:55 AM,21.2,14.0,74,30.14,-9999.0,WSW,16.1,-,N/A,,Mostly Cloudy,240,2013-01-01 17:55:00
12:15 PM,21.2,15.8,80,30.14,-9999.0,WSW,17.3,-,N/A,,Overcast,240,2013-01-01 18:15:00
12:35 PM,21.2,15.8,80,30.13,-9999.0,WSW,15.0,-,N/A,,Overcast,240,2013-01-01 18:35:00
12:55 PM,21.2,15.8,80,30.13,-9999.0,WSW,17.3,-,N/A,,Overcast,240,2013-01-01 18:55:00
1:15 PM,21.2,15.8,80,30.12,-9999.0,WSW,17.3,-,N/A,,Overcast,240,2013-01-01 19:15:00
1:35 PM,21.2,15.8,80,30.11,-9999.0,SW,13.8,-,N/A,,Overcast,230,2013-01-01 19:35:00
1:55 PM,21.2,15.8,80,30.11,-9999.0,SW,11.5,-,N/A,,Overcast,230,2013-01-01 19:55:00
2:15 PM,21.2,15.8,80,30.10,-9999.0,SSW,16.1,-,N/A,,Overcast,210,2013-01-01 20:15:00
2:35 PM,21.2,15.8,80,30.10,-9999.0,SSW,16.1,-,N/A,,Overcast,210,2013-01-01 20:35:00
3:15 PM,21.2,15.8,80,30.10,-9999.0,SW,10.4,-,N/A,,Overcast,220,2013-01-01 21:15:00
3:35 PM,21.2,15.8,80,30.10,-9999.0,SSW,11.5,-,N/A,,Overcast,210,2013-01-01 21:35:00
3:55 PM,21.2,15.8,80,30.10,-9999.0,SW,9.2,-,N/A,,Overcast,220,2013-01-01 21:55:00
4:15 PM,21.2,15.8,80,30.09,-9999.0,SW,16.1,-,N/A,,Overcast,230,2013-01-01 22:15:00
4:35 PM,21.2,15.8,80,30.08,-9999.0,SW,15.0,-,N/A,,Overcast,230,2013-01-01 22:35:00
4:55 PM,21.2,17.6,86,30.07,-9999.0,SW,16.1,20.7,N/A,,Overcast,230,2013-01-01 22:55:00
5:15 PM,21.2,17.6,86,30.06,-9999.0,WSW,13.8,-,N/A,,Overcast,240,2013-01-01 23:15:00
5:35 PM,21.2,15.8,80,30.06,-9999.0,SW,10.4,-,N/A,,Overcast,230,2013-01-01 23:35:00
5:55 PM,21.2,17.6,86,30.05,-9999.0,SW,11.5,-,N/A,,Overcast,230,2013-01-01 23:55:00
6:15 PM,21.2,17.6,86,30.05,-9999.0,SW,13.8,-,N/A,,Overcast,230,2013-01-02 00:15:00
6:35 PM,21.2,17.6,86,30.04,-9999.0,SW,9.2,-,N/A,,Overcast,230,2013-01-02 00:35:00
6:55 PM,21.2,17.6,86,30.04,-9999.0,WSW,10.4,-,N/A,,Overcast,240,2013-01-02 00:55:00
7:15 PM,21.2,17.6,86,30.03,-9999.0,SW,11.5,-,N/A,,Overcast,230,2013-01-02 01:15:00
7:35 PM,21.2,15.8,80,30.02,-9999.0,WSW,12.7,-,N/A,,Mostly Cloudy,240,2013-01-02 01:35:00
7:55 PM,21.2,15.8,80,30.02,-9999.0,SW,8.1,-,N/A,,Mostly Cloudy,230,2013-01-02 01:55:00
8:15 PM,21.2,17.6,86,30.01,-9999.0,SW,10.4,-,N/A,,Overcast,230,2013-01-02 02:15:00
8:35 PM,21.2,17.6,86,30.01,-9999.0,SW,4.6,-,N/A,,Overcast,230,2013-01-02 02:35:00
8:55 PM,21.2,15.8,80,30.00,-9999.0,SW,17.3,-,N/A,,Overcast,230,2013-01-02 02:55:00
9:15 PM,21.2,17.6,86,30.00,-9999.0,SW,16.1,-,N/A,,Unknown,220,2013-01-02 03:15:00
9:35 PM,21.2,15.8,80,30.00,-9999.0,SW,13.8,-,N/A,,Partly Cloudy,230,2013-01-02 03:35:00
9:55 PM,19.4,15.8,86,29.99,-9999.0,WSW,17.3,-,N/A,,Unknown,240,2013-01-02 03:55:00
10:15 PM,19.4,15.8,86,29.98,-9999.0,WSW,16.1,19.6,N/A,,Unknown,240,2013-01-02 04:15:00
10:35 PM,19.4,15.8,86,29.98,-9999.0,WSW,9.2,-,N/A,,Unknown,240,2013-01-02 04:35:00
10:55 PM,19.4,14.0,80,29.98,-9999.0,WSW,13.8,-,N/A,,Clear,240,2013-01-02 04:55:00
11:15 PM,19.4,14.0,80,29.97,-9999.0,SW,16.1,-,N/A,,Clear,230,2013-01-02 05:15:00
11:35 PM,19.4,15.8,86,29.97,-9999.0,WSW,9.2,-,N/A,,Mostly Cloudy,250,2013-01-02 05:35:00
11:55 PM,19.4,15.8,86,29.96,-9999.0,SSW,3.5,-,N/A,,Unknown,210,2013-01-02 05:55:00